Orbital Elements at Epoch 2459000.5 (2020-May-31.0) TDB
Reference: JPL 15 (heliocentric ecliptic J2000)
Element | Value | Uncertainty (1-sigma) | Units |
e | .1855086928415708 | 5.4749e-08 | |
a | 3.187218801240773 | 4.1161e-08 | au |
q | 2.595962007622519 | 1.8898e-07 | au |
i | 17.37188863422607 | 5.987e-06 | deg |
node | 263.1741122413623 | 2.5608e-05 | deg |
peri | 3.899275393940906 | 3.4158e-05 | deg |
M | 302.2261392180658 | 2.3654e-05 | deg |
tp | 2459334.037857426292 (2021-Apr-29.53785743) | 0.00013987 | TDB |
period | 2078.338318546507 5.69 | 4.0261e-05 1.102e-07 | d yr |
n | .1732153022380722 | 3.3554e-09 | deg/d |
Q | 3.778475594859026 | 4.8796e-08 | au |
|
| | Orbit Determination Parameters
Additional Information
|